Location: ????????
(60.4333°N, 46.4710°E)
Time: 04:00:18
(UTC+00:00)

IRS-1C Rocket - Pass Details

Date: 25 November 2020
Orbit: 800 x 806 km, 99.0° (Epoch: 19 January)

Event Time Altitude Azimuth Distance (km) Brightness Sun altitude
Rises 13:34:56 0° 131° (SE) 3,320 7.1 -10.3°
Reaches altitude 10° 13:37:22 10° 125° (SE) 2,392 6.3 -10.6°
Maximum altitude 13:42:17 41° 56° (ENE) 1,157 4.5 -11.1°
Drops below altitude 10° 13:47:14 10° 348° (NNW) 2,403 6.5 -11.7°
Sets 13:49:41 0° 342° (NNW) 3,337 7.3 -12.0°
